Location: New Canada
(47.1017°N, 68.5042°W)
Time: 08:58:25
(UTC+00:00)

EO-79 - Pass Details

Date: 05 April 2023
Orbit: 578 x 593 km, 98.0° (Epoch: 02 June)

Event Time Altitude Azimuth Distance (km) Brightness Sun altitude
Rises 06:19:27 0° 20° (NNE) 2,825 ? -32.3°
Reaches altitude 10° 06:21:44 10° 28° (NNE) 1,916 ? -32.1°
Enters shadow 06:23:51 26° 47° (NE) 1,178 ? -31.9°
